Погода в Элваше

Португалия     38°52′42″N   7°09′57″W
темп.,
°C
ветер,
м/с
пор.,
м/с
влажн.,
%
обл.,
%
осадки,
мм/ч
давл.,
гПа
погр.,
м
8 марта, пн
пн800:00+8зсз34970 0.0 101672
03:00+6з359914 0.0 1015109
06:00+7зсз469752 0.0 1015326
09:00+8зсз2392100 0.0 1016286
12:00+9зюз2288100 0.0 1016297
15:00+12зсз228192 0.0 1014564
18:00+11з358478 0.1 1014152
21:00+8сз359312 0.0 101779
9 марта, вт
вт900:00+6ссз34826 0.0 101769
03:00+4с34830 0.0 101780
06:00+4ссв49840 0.0 1018199
09:00+9св69760 0.0 1019432
12:00+14св45670 0.0 1019842
15:00+15ссв34573 0.0 10171419
18:00+12ссз34734 0.0 101782
21:00+7сз236425 0.0 102122
10 марта, ср
ср1000:00+6сз236862 0.0 102125
03:00+5ссз116999 0.0 102222
06:00+4ссз117350 0.0 102222
09:00+9с11620 0.0 1024142
12:00+14ююз01520 0.0 1024681
15:00+16зюз11470 0.0 10231023
18:00+13з34706 0.0 102448
21:00+9зсз33720 0.0 102627
11 марта, чт
чт1100:00+7зсз338418 0.0 102734
03:00+6з228270 0.0 102722
06:00+6з338979 0.0 102737
09:00+11з358798 0.0 1028250
12:00+16зсз457479 0.0 1027759
15:00+16з557688 0.0 1026847
18:00+14з378591 0.1 1026302
21:00+10зсз359392 0.0 102888
12 марта, пт
пт1200:00+8зсз359696 0.0 1027105
03:00+8зсз4898100 0.0 1026186
06:00+9зсз489998 0.0 1026241
09:00+12сз6108888 0.0 1027500
12:00+15зсз686862 0.0 1026992
15:00+15сз67575 0.0 10251470
18:00+12сз467434 0.0 1025149
21:00+7ссз34811 0.0 102750